{"data":{"norad_id":68580,"epoch":"2026-05-25T02:41:02.556096Z","epoch_age_seconds":65078,"freshness":"FRESH","line1":"1 68580U 26072H   26145.11183514  .00023169  00000+0  63385-3 0  9994","line2":"2 68580  51.8766 288.2782 0001999 303.3435  56.7360 15.37247173  7833","mean_motion":15.37247173,"eccentricity":0.0001999,"inclination_deg":51.8766,"raan_deg":288.2782,"arg_perigee_deg":303.3435,"mean_anomaly_deg":56.736,"bstar":0.00063385,"rev_number":783,"period_min":93.673940358581,"perigee_km":452.88811096251,"apogee_km":455.61970084669,"semimajor_km":6832.3909059046,"source":"CELESTRAK","updated_at":"2026-05-25T13:38:07.948505Z"}}